| time (UTC) | temp F | wind direction | speed MPH | gust MPH | rain 1hr in | rain 24hr in | rain mn in | humidity % | barometer mb |
| 20260905222153 | 82 | 67 | 2.0 | 4.0 | 0.00 | 0.00 | 0.00 | 36 | 1012.5 |
| 20260905221121 | 83 | 160 | 0.0 | 4.0 | 0.00 | 0.00 | 0.00 | 34 | 1012.7 |
| 20260905220121 | 83 | 185 | 1.0 | 0.0 | 0.00 | 0.00 | 0.00 | 34 | 1012.8 |
| 20260905214713 | 83 | 229 | 4.0 | 6.0 | 0.00 | 0.00 | 0.00 | 34 | 1012.9 |
| 20260905214212 | 84 | 206 | 4.0 | 4.0 | 0.00 | 0.00 | 0.00 | 33 | 1013.0 |
| 20260905212939 | 83 | 202 | 1.0 | 1.0 | 0.00 | 0.00 | 0.00 | 34 | 1013.0 |
| 20260905211848 | 84 | 219 | 2.0 | 6.0 | 0.00 | 0.00 | 0.00 | 33 | 1013.2 |
| 20260905211348 | 82 | 13 | 3.0 | 7.0 | 0.00 | 0.00 | 0.00 | 35 | 1013.1 |
| 20260905211340 | 82 | 242 | 3.0 | 7.0 | 0.00 | 0.00 | 0.00 | 34 | 1013.1 |
| 20260905205445 | 82 | 292 | 1.0 | 5.0 | 0.00 | 0.00 | 0.00 | 35 | 1013.1 |
| 20260905204946 | 82 | 121 | 1.0 | 5.0 | 0.00 | 0.00 | 0.00 | 36 | 1013.2 |
| 20260905204442 | 81 | 236 | 1.0 | 5.0 | 0.00 | 0.00 | 0.00 | 37 | 1013.2 |
| 20260905203938 | 80 | 99 | 1.0 | 4.0 | 0.00 | 0.00 | 0.00 | 35 | 1013.2 |
| 20260905203439 | 80 | 153 | 2.0 | 0.0 | 0.00 | 0.00 | 0.00 | 37 | 1013.2 |
| 20260905203434 | 81 | 207 | 1.0 | 4.0 | 0.00 | 0.00 | 0.00 | 36 | 1013.2 |
| 20260905202047 | 80 | 234 | 4.0 | 0.0 | 0.00 | 0.00 | 0.00 | 37 | 1013.2 |
| 20260905200124 | 80 | 231 | 3.0 | 10.0 | 0.00 | 0.00 | 0.00 | 36 | 1013.3 |
| 20260905195626 | 81 | 209 | 3.0 | 3.0 | 0.00 | 0.00 | 0.00 | 35 | 1013.4 |
| 20260905194308 | 82 | 238 | 3.0 | 10.0 | 0.00 | 0.00 | 0.00 | 35 | 1013.4 |
| 20260905193755 | 81 | 258 | 2.0 | 2.0 | 0.00 | 0.00 | 0.00 | 35 | 1013.5 |
| 20260905192252 | 79 | 246 | 4.0 | 5.0 | 0.00 | 0.00 | 0.00 | 38 | 1013.6 |
| 20260905191020 | 80 | 212 | 1.0 | 7.0 | 0.00 | 0.00 | 0.00 | 39 | 1013.7 |
| 20260905190516 | 79 | 192 | 1.0 | 1.0 | 0.00 | 0.00 | 0.00 | 41 | 1013.7 |
| 20260905190016 | 80 | 200 | 2.0 | 0.0 | 0.00 | 0.00 | 0.00 | 39 | 1013.8 |
| 20260905185118 | 79 | 241 | 1.0 | 4.0 | 0.00 | 0.00 | 0.00 | 40 | 1013.8 |
| 20260905184857 | 79 | 219 | 3.0 | 2.0 | 0.00 | 0.00 | 0.00 | 38 | 1013.6 |
| 20260905182827 | 79 | 73 | 1.0 | 8.0 | 0.00 | 0.00 | 0.00 | 39 | 1013.6 |
| 20260905182324 | 80 | 234 | 2.0 | 8.0 | 0.00 | 0.00 | 0.00 | 38 | 1013.7 |
| 20260905181828 | 79 | 243 | 2.0 | 1.0 | 0.00 | 0.00 | 0.00 | 37 | 1013.6 |
| 20260905181823 | 79 | 237 | 2.0 | 4.0 | 0.00 | 0.00 | 0.00 | 37 | 1013.6 |
| 20260905175831 | 78 | 246 | 2.0 | 7.0 | 0.00 | 0.00 | 0.00 | 43 | 1013.6 |
| 20260905175327 | 78 | 252 | 1.0 | 7.0 | 0.00 | 0.00 | 0.00 | 43 | 1013.6 |
| 20260905174826 | 77 | 180 | 2.0 | 2.0 | 0.00 | 0.00 | 0.00 | 43 | 1013.5 |
| 20260905174248 | 78 | 214 | 2.0 | 5.0 | 0.00 | 0.00 | 0.00 | 46 | 1013.6 |
| 20260905173241 | 76 | 232 | 2.0 | 4.0 | 0.00 | 0.00 | 0.00 | 47 | 1013.5 |
| 20260905172738 | 75 | 346 | 2.0 | 1.0 | 0.00 | 0.00 | 0.00 | 46 | 1013.3 |
| 20260905171346 | 74 | 236 | 1.0 | 4.0 | 0.00 | 0.00 | 0.00 | 49 | 1013.3 |
| 20260905170837 | 74 | 233 | 1.0 | 4.0 | 0.00 | 0.00 | 0.00 | 49 | 1013.3 |
| 20260905170337 | 74 | 226 | 0.0 | 0.0 | 0.00 | 0.00 | 0.00 | 51 | 1013.3 |
| 20260905165450 | 73 | 218 | 1.0 | 4.0 | 0.00 | 0.00 | 0.00 | 52 | 1013.3 |
| 20260905164449 | 72 | 220 | 0.0 | 4.0 | 0.00 | 0.00 | 0.00 | 54 | 1013.2 |
| 20260905163129 | 70 | 207 | 1.0 | 3.0 | 0.00 | 0.00 | 0.00 | 56 | 1013.1 |
| 20260905162623 | 70 | 163 | 0.0 | 1.0 | 0.00 | 0.00 | 0.00 | 57 | 1013.0 |
| 20260905161115 | 69 | 186 | 0.0 | 0.0 | 0.00 | 0.00 | 0.00 | 58 | 1013.4 |
| 20260905155719 | 66 | 179 | 0.0 | 1.0 | 0.00 | 0.00 | 0.00 | 60 | 1013.1 |
| 20260905155216 | 66 | 178 | 0.0 | 0.0 | 0.00 | 0.00 | 0.00 | 62 | 1013.1 |
| 20260905153831 | 65 | 173 | 0.0 | 3.0 | 0.00 | 0.00 | 0.00 | 63 | 1013.3 |
| 20260905153815 | 64 | 177 | 0.0 | 3.0 | 0.00 | 0.00 | 0.00 | 63 | 1013.2 |
| 20260905152746 | 64 | 162 | 0.0 | 0.0 | 0.00 | 0.00 | 0.00 | 63 | 1013.2 |
| 20260905151345 | 63 | 167 | 0.0 | 1.0 | 0.00 | 0.00 | 0.00 | 66 | 1013.1 |
| 20260905150844 | 62 | 159 | 0.0 | 0.0 | 0.00 | 0.00 | 0.00 | 70 | 1012.9 |
| 20260905150337 | 61 | 159 | 0.0 | 0.0 | 0.00 | 0.00 | 0.00 | 71 | 1012.8 |
| 20260905145823 | 61 | 159 | 0.0 | 0.0 | 0.00 | 0.00 | 0.00 | 72 | 1012.8 |
| 20260905145310 | 62 | 154 | 0.0 | 0.0 | 0.00 | 0.00 | 0.00 | 71 | 1012.9 |
| 20260905144509 | 60 | 149 | 0.0 | 0.0 | 0.00 | 0.00 | 0.00 | 74 | 1012.7 |
| 20260905143504 | 60 | 149 | 0.0 | 0.0 | 0.00 | 0.00 | 0.00 | 76 | 1012.7 |
| 20260905143000 | 59 | 149 | 0.0 | 0.0 | 0.00 | 0.00 | 0.00 | 77 | 1012.7 |
| 20260905141752 | 56 | 157 | 0.0 | 0.0 | 0.00 | 0.00 | 0.00 | 81 | 1012.6 |
| 20260905141243 | 56 | 157 | 0.0 | 0.0 | 0.00 | 0.00 | 0.00 | 80 | 1012.5 |
| 20260905140715 | 55 | 157 | 0.0 | 0.0 | 0.00 | 0.00 | 0.00 | 79 | 1012.2 |
| 20260905140205 | 55 | 156 | 0.0 | 0.0 | 0.00 | 0.00 | 0.00 | 79 | 1012.1 |
| 20260905135641 | 55 | 156 | 0.0 | 0.0 | 0.00 | 0.00 | 0.00 | 78 | 1012.1 |
| 20260905134343 | 55 | 156 | 0.0 | 0.0 | 0.00 | 0.00 | 0.00 | 77 | 1012.1 |
| 20260905133253 | 56 | 156 | 0.0 | 0.0 | 0.00 | 0.00 | 0.00 | 76 | 1012.2 |
| 20260905132749 | 56 | 156 | 0.0 | 0.0 | 0.00 | 0.00 | 0.00 | 75 | 1012.0 |
| 20260905132250 | 56 | 156 | 0.0 | 0.0 | 0.00 | 0.00 | 0.00 | 75 | 1012.1 |
| 20260905131721 | 56 | 156 | 0.0 | 0.0 | 0.00 | 0.00 | 0.00 | 75 | 1012.0 |
| 20260905131216 | 56 | 155 | 0.0 | 0.0 | 0.00 | 0.00 | 0.00 | 74 | 1012.0 |
| 20260905130713 | 57 | 155 | 0.0 | 0.0 | 0.00 | 0.00 | 0.00 | 74 | 1012.0 |
| 20260905125312 | 57 | 157 | 0.0 | 0.0 | 0.00 | 0.00 | 0.00 | 73 | 1011.9 |
| 20260905124800 | 57 | 157 | 0.0 | 0.0 | 0.00 | 0.00 | 0.00 | 73 | 1011.9 |
| 20260905124257 | 57 | 156 | 0.0 | 0.0 | 0.00 | 0.00 | 0.00 | 74 | 1011.9 |
| 20260905123752 | 57 | 119 | 0.0 | 0.0 | 0.00 | 0.00 | 0.00 | 73 | 1011.9 |
| 20260905123747 | 57 | 154 | 0.0 | 0.0 | 0.00 | 0.00 | 0.00 | 73 | 1011.9 |
| 20260905121751 | 57 | 146 | 0.0 | 1.0 | 0.00 | 0.00 | 0.00 | 73 | 1011.9 |
| 20260905121725 | 58 | 166 | 0.0 | 1.0 | 0.00 | 0.00 | 0.00 | 73 | 1011.9 |
| 20260905120728 | 57 | 150 | 0.0 | 0.0 | 0.00 | 0.00 | 0.00 | 73 | 1011.9 |
| 20260905115640 | 57 | 136 | 0.0 | 0.0 | 0.00 | 0.00 | 0.00 | 75 | 1011.9 |
| 20260905114135 | 58 | 135 | 0.0 | 1.0 | 0.00 | 0.00 | 0.00 | 75 | 1012.0 |
| 20260905113108 | 58 | 149 | 0.0 | 0.0 | 0.00 | 0.00 | 0.00 | 75 | 1012.0 |
| 20260905112011 | 57 | 147 | 0.0 | 0.0 | 0.00 | 0.00 | 0.00 | 76 | 1012.0 |
| 20260905112005 | 57 | 189 | 0.0 | 0.0 | 0.00 | 0.00 | 0.00 | 76 | 1012.1 |
| 20260905111502 | 57 | 142 | 0.0 | 0.0 | 0.00 | 0.00 | 0.00 | 76 | 1012.1 |
| 20260905110455 | 58 | 148 | 0.0 | 0.0 | 0.00 | 0.00 | 0.00 | 76 | 1012.2 |
| 20260905110449 | 58 | 150 | 0.0 | 0.0 | 0.00 | 0.00 | 0.00 | 75 | 1012.2 |
| 20260905105443 | 58 | 150 | 0.0 | 0.0 | 0.00 | 0.00 | 0.00 | 75 | 1012.2 |
| 20260905104938 | 58 | 163 | 0.0 | 0.0 | 0.00 | 0.00 | 0.00 | 74 | 1012.2 |
| 20260905104438 | 58 | 169 | 0.0 | 0.0 | 0.00 | 0.00 | 0.00 | 74 | 1012.2 |
| 20260905103910 | 58 | 171 | 0.0 | 0.0 | 0.00 | 0.00 | 0.00 | 74 | 1012.2 |
| 20260905102835 | 58 | 172 | 0.0 | 0.0 | 0.00 | 0.00 | 0.00 | 74 | 1012.5 |
| 20260905101801 | 58 | 177 | 0.0 | 0.0 | 0.00 | 0.00 | 0.00 | 73 | 1012.5 |
| 20260905101143 | 58 | 162 | 0.0 | 0.0 | 0.00 | 0.00 | 0.00 | 73 | 1012.6 |
| 20260905100137 | 58 | 180 | 0.0 | 0.0 | 0.00 | 0.00 | 0.00 | 73 | 1012.6 |
| 20260905095627 | 58 | 178 | 0.0 | 0.0 | 0.00 | 0.00 | 0.00 | 73 | 1012.6 |
| 20260905095108 | 58 | 184 | 0.0 | 0.0 | 0.00 | 0.00 | 0.00 | 73 | 1012.6 |
| 20260905094613 | 58 | 184 | 0.0 | 0.0 | 0.00 | 0.00 | 0.00 | 73 | 1012.6 |
| 20260905093450 | 59 | 184 | 0.0 | 0.0 | 0.00 | 0.00 | 0.00 | 72 | 1012.7 |
| 20260905093446 | 59 | 183 | 0.0 | 0.0 | 0.00 | 0.00 | 0.00 | 72 | 1012.7 |
| 20260905092943 | 59 | 190 | 0.0 | 0.0 | 0.00 | 0.00 | 0.00 | 72 | 1012.7 |
| 20260905091933 | 59 | 191 | 0.0 | 0.0 | 0.00 | 0.00 | 0.00 | 72 | 1012.6 |
| 20260905091404 | 59 | 191 | 0.0 | 0.0 | 0.00 | 0.00 | 0.00 | 72 | 1012.6 |
| 20260905090849 | 59 | 186 | 0.0 | 0.0 | 0.00 | 0.00 | 0.00 | 71 | 1012.6 |
| 20260905090341 | 59 | 186 | 0.0 | 0.0 | 0.00 | 0.00 | 0.00 | 71 | 1012.5 |
| 20260905090335 | 59 | 186 | 0.0 | 0.0 | 0.00 | 0.00 | 0.00 | 71 | 1012.6 |
| 20260905085318 | 59 | 186 | 0.0 | 0.0 | 0.00 | 0.00 | 0.00 | 71 | 1012.7 |
| 20260905083736 | 60 | 186 | 0.0 | 0.0 | 0.00 | 0.00 | 0.00 | 70 | 1012.6 |
| 20260905083229 | 60 | 181 | 0.0 | 0.0 | 0.00 | 0.00 | 0.00 | 69 | 1012.6 |
| 20260905082725 | 60 | 177 | 0.0 | 0.0 | 0.00 | 0.00 | 0.00 | 69 | 1012.6 |
| 20260905082707 | 60 | 176 | 0.0 | 0.0 | 0.00 | 0.00 | 0.00 | 68 | 1012.7 |
| 20260905081654 | 61 | 175 | 0.0 | 0.0 | 0.00 | 0.00 | 0.00 | 67 | 1012.6 |
| 20260905081155 | 61 | 160 | 0.0 | 0.0 | 0.00 | 0.00 | 0.00 | 66 | 1012.6 |
| 20260905080654 | 61 | 155 | 0.0 | 0.0 | 0.00 | 0.00 | 0.00 | 66 | 1012.6 |
| 20260905080145 | 61 | 150 | 0.0 | 0.0 | 0.00 | 0.00 | 0.00 | 66 | 1012.6 |
| 20260905075638 | 61 | 155 | 0.0 | 0.0 | 0.00 | 0.00 | 0.00 | 65 | 1012.7 |
| 20260905074551 | 62 | 146 | 0.0 | 0.0 | 0.00 | 0.00 | 0.00 | 66 | 1012.6 |
| 20260905074039 | 62 | 148 | 0.0 | 0.0 | 0.00 | 0.00 | 0.00 | 65 | 1012.6 |
| 20260905072551 | 62 | 144 | 0.0 | 0.0 | 0.00 | 0.00 | 0.00 | 65 | 1012.3 |
| 20260905072515 | 62 | 142 | 0.0 | 0.0 | 0.00 | 0.00 | 0.00 | 65 | 1012.3 |
| 20260905070928 | 62 | 130 | 0.0 | 0.0 | 0.00 | 0.00 | 0.00 | 65 | 1012.3 |
| 20260905070853 | 62 | 153 | 0.0 | 0.0 | 0.00 | 0.00 | 0.00 | 65 | 1012.5 |
| 20260905065853 | 62 | 131 | 0.0 | 0.0 | 0.00 | 0.00 | 0.06 | 66 | 1012.5 |
| 20260905065351 | 62 | 148 | 0.0 | 0.0 | 0.00 | 0.00 | 0.06 | 66 | 1012.5 |
| 20260905064851 | 63 | 116 | 0.0 | 0.0 | 0.00 | 0.00 | 0.06 | 65 | 1012.5 |
| 20260905064350 | 63 | 128 | 0.0 | 0.0 | 0.00 | 0.00 | 0.06 | 65 | 1012.3 |
| 20260905063849 | 63 | 142 | 0.0 | 0.0 | 0.00 | 0.00 | 0.06 | 65 | 1012.3 |
| 20260905063347 | 63 | 142 | 0.0 | 0.0 | 0.00 | 0.00 | 0.06 | 65 | 1012.5 |
| 20260905063324 | 63 | 142 | 0.0 | 0.0 | 0.00 | 0.00 | 0.06 | 65 | 1012.3 |
| 20260905061651 | 64 | 124 | 0.0 | 0.0 | 0.00 | 0.00 | 0.06 | 64 | 1012.5 |
| 20260905061148 | 64 | 115 | 0.0 | 0.0 | 0.00 | 0.00 | 0.06 | 63 | 1012.6 |
| 20260905060649 | 64 | 118 | 0.0 | 0.0 | 0.00 | 0.00 | 0.06 | 63 | 1012.5 |
| 20260905060113 | 65 | 164 | 0.0 | 0.0 | 0.00 | 0.00 | 0.06 | 62 | 1012.6 |
| 20260905055025 | 65 | 166 | 0.0 | 0.0 | 0.00 | 0.00 | 0.06 | 61 | 1012.6 |
| 20260905053659 | 65 | 217 | 0.0 | 0.0 | 0.00 | 0.00 | 0.06 | 60 | 1012.6 |
| 20260905053655 | 65 | 164 | 0.0 | 0.0 | 0.00 | 0.00 | 0.06 | 61 | 1012.7 |
| 20260905052658 | 65 | 217 | 0.0 | 0.0 | 0.00 | 0.00 | 0.06 | 59 | 1012.6 |
| 20260905051143 | 66 | 236 | 0.0 | 0.0 | 0.00 | 0.00 | 0.06 | 56 | 1012.7 |
| 20260905051137 | 66 | 234 | 0.0 | 0.0 | 0.00 | 0.00 | 0.06 | 57 | 1012.7 |
| 20260905045845 | 67 | 236 | 0.0 | 0.0 | 0.00 | 0.00 | 0.06 | 54 | 1012.6 |
| 20260905044837 | 67 | 237 | 0.0 | 0.0 | 0.00 | 0.00 | 0.06 | 53 | 1012.7 |
| 20260905043411 | 68 | 240 | 3.0 | 2.0 | 0.00 | 0.00 | 0.06 | 54 | 1012.5 |
| 20260905042044 | 68 | 254 | 2.0 | 3.0 | 0.00 | 0.00 | 0.06 | 51 | 1012.3 |
| 20260905040933 | 69 | 237 | 3.0 | 1.0 | 0.00 | 0.00 | 0.06 | 45 | 1012.1 |
| 20260905035351 | 70 | 248 | 0.0 | 2.0 | 0.00 | 0.00 | 0.06 | 44 | 1012.1 |
| 20260905034852 | 70 | 248 | 0.0 | 2.0 | 0.00 | 0.00 | 0.06 | 43 | 1012.1 |
| 20260905034345 | 70 | 248 | 0.0 | 0.0 | 0.00 | 0.00 | 0.06 | 43 | 1012.0 |
| 20260905033829 | 70 | 248 | 0.0 | 3.0 | 0.00 | 0.00 | 0.06 | 44 | 1011.8 |
| 20260905033328 | 71 | 248 | 1.0 | 3.0 | 0.00 | 0.00 | 0.06 | 43 | 1011.7 |
| 20260905032829 | 71 | 244 | 2.0 | 0.0 | 0.00 | 0.00 | 0.06 | 42 | 1011.7 |
| 20260905031404 | 71 | 240 | 1.0 | 5.0 | 0.00 | 0.00 | 0.06 | 42 | 1011.7 |
| 20260905030858 | 71 | 244 | 1.0 | 3.0 | 0.00 | 0.00 | 0.06 | 43 | 1011.7 |
| 20260905030404 | 72 | 246 | 1.0 | 1.0 | 0.00 | 0.00 | 0.06 | 44 | 1011.5 |
| 20260905025217 | 72 | 225 | 2.0 | 5.0 | 0.00 | 0.00 | 0.06 | 43 | 1011.6 |
| 20260905024715 | 73 | 234 | 2.0 | 5.0 | 0.00 | 0.00 | 0.06 | 43 | 1011.6 |
| 20260905024220 | 73 | 246 | 2.0 | 2.0 | 0.00 | 0.00 | 0.06 | 43 | 1011.5 |
| 20260905023004 | 74 | 234 | 2.0 | 5.0 | 0.00 | 0.00 | 0.06 | 43 | 1011.4 |
| 20260905022456 | 74 | 238 | 2.0 | 5.0 | 0.00 | 0.00 | 0.06 | 43 | 1011.4 |
| 20260905022000 | 74 | 236 | 1.0 | 3.0 | 0.00 | 0.00 | 0.06 | 43 | 1011.3 |
| 20260905020833 | 75 | 244 | 2.0 | 5.0 | 0.00 | 0.00 | 0.06 | 42 | 1011.4 |
| 20260905020332 | 75 | 236 | 2.0 | 5.0 | 0.00 | 0.00 | 0.06 | 42 | 1011.4 |
| 20260905015831 | 76 | 243 | 2.0 | 4.0 | 0.00 | 0.00 | 0.06 | 42 | 1011.5 |
| 20260905015333 | 76 | 235 | 2.0 | 2.0 | 0.00 | 0.00 | 0.06 | 41 | 1011.5 |
| 20260905013813 | 77 | 242 | 0.0 | 0.0 | 0.00 | 0.00 | 0.06 | 40 | 1011.5 |
| 20260905013319 | 77 | 242 | 0.0 | 0.0 | 0.00 | 0.00 | 0.06 | 39 | 1011.5 |
| 20260905011814 | 78 | 227 | 0.0 | 0.0 | 0.00 | 0.00 | 0.06 | 38 | 1011.4 |
| 20260905010443 | 78 | 121 | 0.0 | 0.0 | 0.00 | 0.00 | 0.06 | 40 | 1011.3 |
| 20260905005929 | 78 | 123 | 0.0 | 0.0 | 0.00 | 0.00 | 0.06 | 39 | 1011.3 |
| 20260905005925 | 78 | 123 | 0.0 | 0.0 | 0.00 | 0.00 | 0.06 | 38 | 1011.3 |
| 20260905004235 | 78 | 238 | 2.0 | 5.0 | 0.00 | 0.00 | 0.06 | 40 | 1011.4 |
| 20260905003736 | 78 | 240 | 3.0 | 7.0 | 0.00 | 0.00 | 0.06 | 39 | 1011.5 |
| 20260905003235 | 78 | 215 | 2.0 | 7.0 | 0.00 | 0.00 | 0.06 | 39 | 1011.6 |
| 20260905002737 | 79 | 221 | 0.0 | 0.0 | 0.00 | 0.00 | 0.06 | 38 | 1011.6 |
| 20260905001727 | 80 | 221 | 2.0 | 5.0 | 0.00 | 0.00 | 0.06 | 38 | 1011.6 |
| 20260905000717 | 80 | 227 | 1.0 | 3.0 | 0.00 | 0.00 | 0.06 | 38 | 1011.6 |
| 20260904235300 | 80 | 181 | 2.0 | 5.0 | 0.00 | 0.00 | 0.06 | 37 | 1011.6 |
| 20260904234801 | 80 | 172 | 2.0 | 2.0 | 0.00 | 0.00 | 0.06 | 37 | 1011.8 |
| 20260904233419 | 80 | 231 | 3.0 | 3.0 | 0.00 | 0.00 | 0.06 | 37 | 1011.9 |
| 20260904232314 | 79 | 242 | 3.0 | 4.0 | 0.00 | 0.00 | 0.06 | 38 | 1011.9 |
| 20260904230941 | 79 | 180 | 2.0 | 7.0 | 0.00 | 0.00 | 0.06 | 38 | 1011.9 |
| 20260904230442 | 80 | 245 | 2.0 | 7.0 | 0.00 | 0.00 | 0.06 | 38 | 1012.0 |
| 20260904230435 | 79 | 243 | 1.0 | 7.0 | 0.00 | 0.00 | 0.06 | 39 | 1012.1 |
| 20260904225435 | 79 | 185 | 2.0 | 7.0 | 0.00 | 0.00 | 0.06 | 39 | 1012.1 |
| 20260904224918 | 79 | 242 | 2.0 | 6.0 | 0.00 | 0.00 | 0.06 | 39 | 1012.2 |
| 20260904224419 | 78 | 241 | 3.0 | 1.0 | 0.00 | 0.00 | 0.06 | 40 | 1012.3 |